When you browse on this site, cookies collect data to enhance your experience and personalize the content and advertising you see.
Visit our Privacy Policy to learn more. By continuing to use the site, you agree to this use of cookies and data.
  • en France
  • Liste des pays
  • À 7 jours
  • Température de l'eau
  • Carte météo
  • Widgets météo
  • user-avatar
    Se connecter

    Météo par heure à Nuremberg

    Ce jour, 23 Septembre, Lundi

    Heure Température Précipitation Vent Pression Humidité
    00:00 +14°C° 0 mm 1 m/s 730 mmHg 89%
    01:00 +13°C° 0 mm 1 m/s 730 mmHg 90%
    02:00 +14°C° 0 mm 1 m/s 730 mmHg 90%
    03:00 +14°C° 0 mm 1 m/s 730 mmHg 90%
    04:00 +14°C° 0 mm 1 m/s 731 mmHg 89%
    05:00 +14°C° 0.4 mm 2 m/s 731 mmHg 91%
    06:00 +14°C° 0.4 mm 3 m/s 732 mmHg 92%
    07:00 +14°C° 0.4 mm 4 m/s 732 mmHg 93%
    08:00 +14°C° 1.4 mm 4 m/s 732 mmHg 94%
    09:00 +14°C° 1.4 mm 4 m/s 733 mmHg 94%
    10:00 +13°C° 1.4 mm 4 m/s 733 mmHg 95%
    11:00 +13°C° 1.4 mm 4 m/s 733 mmHg 95%
    12:00 +13°C° 1.4 mm 4 m/s 734 mmHg 95%
    13:00 +13°C° 1.4 mm 4 m/s 734 mmHg 95%
    14:00 +13°C° 1 mm 3 m/s 734 mmHg 95%
    15:00 +13°C° 1 mm 3 m/s 734 mmHg 95%
    16:00 +14°C° 1 mm 2 m/s 734 mmHg 95%
    17:00 +14°C° 0.2 mm 2 m/s 734 mmHg 95%
    18:00 +14°C° 0.2 mm 1 m/s 735 mmHg 95%
    19:00 +14°C° 0.2 mm 1 m/s 735 mmHg 95%
    20:00 +13°C° 0 mm 1 m/s 735 mmHg 95%
    21:00 +13°C° 0 mm 1 m/s 735 mmHg 95%
    22:00 +13°C° 0 mm 1 m/s 735 mmHg 95%
    23:00 +12°C° 0 mm 1 m/s 735 mmHg 95%

    Demain, 24 Septembre, Mardi

    Heure Température Précipitation Vent Pression Humidité
    00:00 +12°C° 0 mm 1 m/s 735 mmHg 95%
    01:00 +11°C° 0 mm 1 m/s 735 mmHg 95%
    02:00 +11°C° 0 mm 1 m/s 735 mmHg 95%
    03:00 +11°C° 0 mm 1 m/s 735 mmHg 95%
    04:00 +10°C° 0 mm 1 m/s 735 mmHg 95%
    05:00 +10°C° 0 mm 1 m/s 734 mmHg 95%
    06:00 +11°C° 0 mm 1 m/s 734 mmHg 95%
    07:00 +11°C° 0 mm 1 m/s 734 mmHg 95%
    08:00 +13°C° 0 mm 1 m/s 734 mmHg 89%
    09:00 +14°C° 0 mm 1 m/s 734 mmHg 83%
    10:00 +16°C° 0 mm 1 m/s 733 mmHg 77%
    11:00 +18°C° 0 mm 1 m/s 733 mmHg 71%
    12:00 +18°C° 0 mm 2 m/s 733 mmHg 65%
    13:00 +19°C° 0 mm 2 m/s 732 mmHg 59%
    14:00 +19°C° 0 mm 2 m/s 732 mmHg 61%
    15:00 +19°C° 0 mm 2 m/s 731 mmHg 62%
    16:00 +19°C° 0 mm 2 m/s 731 mmHg 63%
    17:00 +18°C° 0 mm 2 m/s 730 mmHg 69%
    18:00 +16°C° 0 mm 2 m/s 730 mmHg 75%
    19:00 +15°C° 0 mm 2 m/s 730 mmHg 80%
    20:00 +15°C° 0.1 mm 2 m/s 730 mmHg 84%
    21:00 +15°C° 0.1 mm 2 m/s 730 mmHg 87%
    22:00 +13°C° 0.1 mm 3 m/s 730 mmHg 90%
    23:00 +13°C° 0 mm 3 m/s 730 mmHg 91%

    Après-demain, 25 Septembre, Mercredi

    Heure Température Précipitation Vent Pression Humidité
    00:00 +13°C° 0 mm 3 m/s 729 mmHg 91%
    01:00 +12°C° 0 mm 3 m/s 729 mmHg 92%
    02:00 +12°C° 0.3 mm 3 m/s 729 mmHg 93%
    03:00 +12°C° 0.3 mm 3 m/s 729 mmHg 94%
    04:00 +12°C° 0.3 mm 3 m/s 729 mmHg 95%
    05:00 +12°C° 0.1 mm 3 m/s 729 mmHg 94%
    06:00 +12°C° 0.1 mm 3 m/s 729 mmHg 92%
    07:00 +12°C° 0.1 mm 3 m/s 729 mmHg 91%
    08:00 +13°C° 0.1 mm 4 m/s 729 mmHg 85%
    09:00 +14°C° 0.1 mm 5 m/s 729 mmHg 80%
    10:00 +15°C° 0.1 mm 5 m/s 730 mmHg 75%
    11:00 +15°C° 0.2 mm 5 m/s 730 mmHg 72%
    12:00 +16°C° 0.2 mm 5 m/s 730 mmHg 69%
    13:00 +16°C° 0.2 mm 5 m/s 730 mmHg 66%
    14:00 +16°C° 0.2 mm 5 m/s 730 mmHg 68%
    15:00 +15°C° 0.2 mm 4 m/s 730 mmHg 69%
    16:00 +15°C° 0.2 mm 4 m/s 730 mmHg 71%
    17:00 +14°C° 0.1 mm 4 m/s 730 mmHg 77%
    18:00 +13°C° 0.1 mm 3 m/s 731 mmHg 82%
    19:00 +13°C° 0.1 mm 2 m/s 731 mmHg 87%
    20:00 +13°C° 0.1 mm 2 m/s 731 mmHg 88%
    21:00 +13°C° 0.1 mm 2 m/s 731 mmHg 89%
    22:00 +13°C° 0.1 mm 2 m/s 732 mmHg 90%
    23:00 +13°C° 0.1 mm 2 m/s 732 mmHg 91%

    26 Septembre, Jeudi

    Heure Température Précipitation Vent Pression Humidité
    00:00 +11°C° 0.1 mm 3 m/s 732 mmHg 92%
    01:00 +11°C° 0.1 mm 3 m/s 731 mmHg 92%
    02:00 +11°C° 0 mm 3 m/s 732 mmHg 92%
    03:00 +11°C° 0 mm 3 m/s 732 mmHg 93%
    04:00 +11°C° 0 mm 3 m/s 732 mmHg 93%
    05:00 +11°C° 0 mm 3 m/s 732 mmHg 92%
    06:00 +12°C° 0 mm 3 m/s 732 mmHg 92%
    07:00 +13°C° 0 mm 2 m/s 732 mmHg 92%
    08:00 +13°C° 0 mm 3 m/s 733 mmHg 90%
    09:00 +14°C° 0 mm 3 m/s 733 mmHg 87%
    10:00 +14°C° 0 mm 3 m/s 734 mmHg 85%
    11:00 +14°C° 0.2 mm 3 m/s 734 mmHg 87%
    12:00 +14°C° 0.2 mm 3 m/s 733 mmHg 89%
    13:00 +13°C° 0.2 mm 3 m/s 733 mmHg 91%
    14:00 +14°C° 0.3 mm 3 m/s 733 mmHg 93%
    15:00 +15°C° 0.3 mm 2 m/s 733 mmHg 94%
    16:00 +15°C° 0.3 mm 2 m/s 733 mmHg 95%
    17:00 +15°C° 0.1 mm 2 m/s 734 mmHg 95%
    18:00 +15°C° 0.1 mm 2 m/s 734 mmHg 95%
    19:00 +15°C° 0.1 mm 2 m/s 734 mmHg 96%
    20:00 +15°C° 0.1 mm 2 m/s 734 mmHg 96%
    21:00 +14°C° 0.1 mm 2 m/s 734 mmHg 96%
    22:00 +14°C° 0.1 mm 1 m/s 734 mmHg 96%
    23:00 +14°C° 0 mm 2 m/s 734 mmHg 96%

    27 Septembre, Vendredi

    Heure Température Précipitation Vent Pression Humidité
    00:00 +14°C° 0 mm 2 m/s 734 mmHg 95%
    01:00 +14°C° 0 mm 2 m/s 734 mmHg 95%
    02:00 +14°C° 0 mm 2 m/s 734 mmHg 95%
    03:00 +14°C° 0 mm 2 m/s 734 mmHg 94%
    04:00 +14°C° 0 mm 2 m/s 734 mmHg 94%
    05:00 +14°C° 0 mm 2 m/s 733 mmHg 94%
    06:00 +14°C° 0 mm 2 m/s 733 mmHg 94%
    07:00 +14°C° 0 mm 2 m/s 733 mmHg 94%
    08:00 +14°C° 0 mm 3 m/s 733 mmHg 89%
    09:00 +17°C° 0 mm 3 m/s 733 mmHg 85%
    10:00 +18°C° 0 mm 3 m/s 733 mmHg 80%
    11:00 +19°C° 0.1 mm 4 m/s 733 mmHg 75%
    12:00 +20°C° 0.1 mm 4 m/s 733 mmHg 70%
    13:00 +21°C° 0.1 mm 4 m/s 733 mmHg 65%
    14:00 +20°C° 0.5 mm 4 m/s 732 mmHg 70%
    15:00 +20°C° 0.5 mm 3 m/s 732 mmHg 75%
    16:00 +19°C° 0.5 mm 3 m/s 732 mmHg 80%
    17:00 +18°C° 1 mm 3 m/s 732 mmHg 84%
    18:00 +17°C° 1 mm 2 m/s 732 mmHg 88%
    19:00 +16°C° 1 mm 2 m/s 732 mmHg 91%
    20:00 +16°C° 0.4 mm 2 m/s 732 mmHg 92%
    21:00 +15°C° 0.4 mm 2 m/s 733 mmHg 93%
    22:00 +15°C° 0.4 mm 2 m/s 733 mmHg 93%
    23:00 +15°C° 0.3 mm 2 m/s 733 mmHg 94%

    28 Septembre, Samedi

    Heure Température Précipitation Vent Pression Humidité
    00:00 +14°C° 0.3 mm 2 m/s 733 mmHg 94%
    01:00 +14°C° 0.3 mm 2 m/s 732 mmHg 94%
    02:00 +13°C° 0.1 mm 2 m/s 732 mmHg 94%
    03:00 +13°C° 0.1 mm 2 m/s 732 mmHg 94%
    04:00 +12°C° 0.1 mm 2 m/s 732 mmHg 94%
    05:00 +12°C° 0 mm 2 m/s 732 mmHg 93%
    06:00 +12°C° 0 mm 2 m/s 732 mmHg 92%
    07:00 +11°C° 0 mm 3 m/s 732 mmHg 90%
    08:00 +12°C° 0 mm 3 m/s 733 mmHg 85%
    09:00 +14°C° 0 mm 4 m/s 733 mmHg 79%
    10:00 +15°C° 0 mm 5 m/s 733 mmHg 73%
    11:00 +15°C° 0 mm 5 m/s 733 mmHg 67%
    12:00 +16°C° 0 mm 5 m/s 733 mmHg 61%
    13:00 +17°C° 0 mm 6 m/s 733 mmHg 54%
    14:00 +16°C° 0 mm 5 m/s 733 mmHg 56%
    15:00 +17°C° 0 mm 4 m/s 732 mmHg 58%
    16:00 +17°C° 0 mm 4 m/s 732 mmHg 60%
    17:00 +16°C° 0 mm 3 m/s 732 mmHg 63%
    18:00 +14°C° 0 mm 3 m/s 732 mmHg 65%
    19:00 +13°C° 0 mm 3 m/s 733 mmHg 68%
    20:00 +13°C° 0 mm 3 m/s 733 mmHg 72%
    21:00 +12°C° 0 mm 3 m/s 733 mmHg 75%
    22:00 +11°C° 0 mm 3 m/s 733 mmHg 79%
    23:00 +11°C° 0 mm 3 m/s 733 mmHg 80%
    Voir plus